Погода в Енимахалле

Турция     39°57′48″N   32°48′30″E
темп.,
°C
ветер,
м/с
пор.,
м/с
влажн.,
%
обл.,
%
осадки,
мм/ч
давл.,
гПа
погр.,
м
17 мая, пн
пн1700:00+11зюз2274100 0.0 100711
03:00+9зюз117940 0.0 100810
06:00+9юз12835 0.0 100911
09:00+14зюз22625 0.0 1010764
12:00+18зюз554593 0.2 10091985
15:00+21з773596 0.2 10082689
18:00+19з5738100 0.0 10081916
21:00+13зсз22585 0.0 101011
18 мая, вт
вт1800:00+11ююз01645 0.0 101110
03:00+10ююз017125 0.0 101110
06:00+10юв11636 0.0 101210
09:00+18юз25445 0.0 1012575
12:00+23зюз68355 0.0 10102192
15:00+25зюз592872 0.0 10083191
18:00+25з692872 0.0 10072352
21:00+17з47520 0.0 1010114
19 мая, ср
ср1900:00+14з33695 0.0 101219
03:00+12с2285100 0.0 101418
06:00+11вюв118823 0.0 101610
09:00+16зюз1259100 0.0 1016808
12:00+21з34365 0.0 10151538
15:00+24з34260 0.0 10132047
18:00+24зсз23250 0.0 10121948
21:00+17св22380 0.0 101311
20 мая, чт
чт2000:00+15св22410 0.0 101312
03:00+14св22470 0.0 101312
06:00+13св32560 0.0 101316
09:00+21всв23370 0.0 1012500
12:00+27ююз25250 0.0 10101886
15:00+30ю35231 0.0 10083043
18:00+29зюз452220 0.0 10072601
21:00+22св22333 0.0 100811
21 мая, пт
пт2100:00+19ссв11410 0.0 100811
03:00+17ссз11460 0.0 100911
06:00+16юз11520 0.0 101011
09:00+24ююз11340 0.0 1010324
12:00+29зюз13222 0.0 10091816
15:00+32ю44166 0.0 10063498
18:00+30юв56180 0.0 10051426
21:00+22вюв22191 0.0 100611